Time,TemperatureF,DewpointF,PressureIn,WindDirection,WindDirectionDegrees,WindSpeedMPH,WindSpeedGustMPH,Humidity,HourlyPrecipIn,Conditions,Clouds,dailyrainin,SoftwareType,DateUTC
2017-04-25 00:00:00,45.3,30.0,29.97,West,276,7.4,9.6,55,0.00,,,0.00,meteobridge,2017-04-25 07:00:00,
2017-04-25 00:05:00,45.1,28.9,29.97,NW,315,10.7,15.2,53,0.00,,,0.00,meteobridge,2017-04-25 07:05:00,
2017-04-25 00:10:00,45.3,29.7,29.97,WSW,252,4.7,11.4,54,0.00,,,0.00,meteobridge,2017-04-25 07:10:00,
2017-04-25 00:13:00,45.3,29.7,29.97,West,271,6.5,11.2,54,0.00,,,0.00,meteobridge,2017-04-25 07:13:00,
2017-04-25 00:18:00,45.3,29.7,29.97,WNW,282,4.0,6.5,54,0.00,,,0.00,meteobridge,2017-04-25 07:18:00,
2017-04-25 00:23:00,45.1,28.9,29.97,NW,306,3.6,10.1,53,0.00,,,0.00,meteobridge,2017-04-25 07:23:00,
2017-04-25 00:28:00,45.0,29.3,29.97,WSW,254,4.3,9.2,54,0.00,,,0.00,meteobridge,2017-04-25 07:28:00,
2017-04-25 00:33:00,44.8,29.1,29.97,WNW,284,7.4,7.6,54,0.00,,,0.00,meteobridge,2017-04-25 07:33:00,
2017-04-25 00:38:00,44.4,28.4,29.97,NW,316,4.3,11.4,53,0.00,,,0.00,meteobridge,2017-04-25 07:38:00,
2017-04-25 00:43:00,44.4,28.8,29.97,West,270,8.1,8.7,54,0.00,,,0.00,meteobridge,2017-04-25 07:43:00,
2017-04-25 00:48:00,44.4,28.8,29.97,West,263,6.5,13.6,54,0.00,,,0.00,meteobridge,2017-04-25 07:48:00,
2017-04-25 00:53:00,44.2,29.5,29.97,West,275,9.2,12.5,56,0.00,,,0.00,meteobridge,2017-04-25 07:53:00,
2017-04-25 00:58:00,44.1,29.3,29.97,NE,46,4.7,9.2,56,0.00,,,0.00,meteobridge,2017-04-25 07:58:00,
2017-04-25 01:03:00,44.1,29.8,29.97,NNW,336,8.1,11.9,57,0.00,,,0.00,meteobridge,2017-04-25 08:03:00,
2017-04-25 01:08:00,43.9,29.1,29.97,NW,307,5.4,13.6,56,0.00,,,0.00,meteobridge,2017-04-25 08:08:00,
2017-04-25 01:13:00,43.9,29.7,29.98,NW,305,5.8,9.2,57,0.00,,,0.00,meteobridge,2017-04-25 08:13:00,
2017-04-25 01:18:00,43.5,29.3,29.98,WNW,300,5.1,9.2,57,0.00,,,0.00,meteobridge,2017-04-25 08:18:00,
2017-04-25 01:23:00,43.3,29.1,29.98,East,96,4.3,8.5,57,0.00,,,0.00,meteobridge,2017-04-25 08:23:00,
2017-04-25 01:28:00,43.3,28.8,29.98,WSW,246,5.8,12.5,56,0.00,,,0.00,meteobridge,2017-04-25 08:28:00,
2017-04-25 01:33:00,43.5,28.9,29.98,West,278,6.5,18.1,56,0.00,,,0.00,meteobridge,2017-04-25 08:33:00,
2017-04-25 01:38:00,43.5,29.3,29.98,NW,305,6.9,15.2,57,0.00,,,0.00,meteobridge,2017-04-25 08:38:00,
2017-04-25 01:43:00,43.3,29.1,29.98,WSW,254,6.9,12.5,57,0.00,,,0.00,meteobridge,2017-04-25 08:43:00,
2017-04-25 01:48:00,43.3,29.1,29.98,West,261,4.3,14.8,57,0.00,,,0.00,meteobridge,2017-04-25 08:48:00,
2017-04-25 01:53:00,43.2,29.3,29.98,WSW,238,4.3,11.2,58,0.00,,,0.00,meteobridge,2017-04-25 08:53:00,
2017-04-25 01:58:00,43.2,29.3,29.97,WSW,238,4.3,13.0,58,0.00,,,0.00,meteobridge,2017-04-25 08:58:00,
2017-04-25 02:03:00,43.0,29.3,29.97,West,261,5.1,9.6,58,0.00,,,0.00,meteobridge,2017-04-25 09:03:00,
2017-04-25 02:08:00,43.0,29.3,29.97,West,259,12.5,15.7,58,0.00,,,0.00,meteobridge,2017-04-25 09:08:00,
2017-04-25 02:13:00,43.0,29.3,29.98,NNW,347,3.1,12.5,58,0.00,,,0.00,meteobridge,2017-04-25 09:13:00,
2017-04-25 02:18:00,42.6,29.7,29.98,NW,309,4.7,11.9,60,0.00,,,0.00,meteobridge,2017-04-25 09:18:00,
2017-04-25 02:23:00,42.4,29.5,29.98,WSW,251,5.1,12.3,60,0.00,,,0.00,meteobridge,2017-04-25 09:23:00,
2017-04-25 02:28:00,42.3,30.2,29.98,WNW,294,6.3,6.5,62,0.00,,,0.00,meteobridge,2017-04-25 09:28:00,
2017-04-25 02:33:00,42.1,30.7,29.98,NE,43,2.9,12.5,64,0.00,,,0.00,meteobridge,2017-04-25 09:33:00,
2017-04-25 02:38:00,41.7,30.4,29.98,NNW,331,3.6,8.7,64,0.00,,,0.00,meteobridge,2017-04-25 09:38:00,
2017-04-25 02:43:00,41.5,30.2,29.98,NW,320,9.2,9.2,64,0.00,,,0.00,meteobridge,2017-04-25 09:43:00,
2017-04-25 02:48:00,41.5,29.5,29.98,West,280,3.1,6.9,62,0.00,,,0.00,meteobridge,2017-04-25 09:48:00,
2017-04-25 02:53:00,41.5,29.5,29.98,SSW,213,8.7,8.7,62,0.00,,,0.00,meteobridge,2017-04-25 09:53:00,
2017-04-25 02:58:00,41.5,28.8,29.98,WNW,282,3.6,5.1,60,0.00,,,0.00,meteobridge,2017-04-25 09:58:00,
2017-04-25 03:03:00,41.7,29.3,29.98,WNW,291,5.1,9.6,61,0.00,,,0.00,meteobridge,2017-04-25 10:03:00,
2017-04-25 03:08:00,41.7,29.3,29.98,WNW,286,3.1,5.4,61,0.00,,,0.00,meteobridge,2017-04-25 10:08:00,
2017-04-25 03:13:00,41.5,28.8,29.98,West,267,4.0,10.1,60,0.00,,,0.00,meteobridge,2017-04-25 10:13:00,
2017-04-25 03:18:00,41.7,28.9,29.98,West,272,3.1,11.2,60,0.00,,,0.00,meteobridge,2017-04-25 10:18:00,
2017-04-25 03:23:00,41.7,28.9,29.98,NNW,329,5.1,7.6,60,0.00,,,0.00,meteobridge,2017-04-25 10:23:00,
2017-04-25 03:28:00,41.5,29.1,29.98,NNW,342,3.6,9.6,61,0.00,,,0.00,meteobridge,2017-04-25 10:28:00,
2017-04-25 03:33:00,41.4,28.9,29.98,NW,307,5.4,11.4,61,0.00,,,0.00,meteobridge,2017-04-25 10:33:00,
2017-04-25 03:38:00,41.4,28.9,29.98,NW,306,5.8,5.8,61,0.00,,,0.00,meteobridge,2017-04-25 10:38:00,
2017-04-25 03:43:00,41.2,28.8,29.98,NW,316,5.4,11.2,61,0.00,,,0.00,meteobridge,2017-04-25 10:43:00,
2017-04-25 03:48:00,41.2,29.1,29.98,NNW,331,4.0,7.4,62,0.00,,,0.00,meteobridge,2017-04-25 10:48:00,
2017-04-25 03:53:00,40.6,29.1,29.98,North,10,2.0,7.6,63,0.00,,,0.00,meteobridge,2017-04-25 10:53:00,
2017-04-25 03:58:00,40.5,29.3,29.99,North,357,5.1,5.8,64,0.00,,,0.00,meteobridge,2017-04-25 10:58:00,
2017-04-25 04:03:00,40.3,29.5,29.99,North,357,5.4,5.4,65,0.00,,,0.00,meteobridge,2017-04-25 11:03:00,
2017-04-25 04:08:00,39.9,29.5,29.99,NNW,344,2.9,3.6,66,0.00,,,0.00,meteobridge,2017-04-25 11:08:00,
2017-04-25 04:13:00,39.7,29.7,29.99,NE,34,2.0,4.0,67,0.00,,,0.00,meteobridge,2017-04-25 11:13:00,
2017-04-25 04:18:00,39.4,29.7,29.99,West,272,2.9,5.1,68,0.00,,,0.00,meteobridge,2017-04-25 11:18:00,
2017-04-25 04:23:00,39.0,29.3,29.99,NNE,26,2.9,5.1,68,0.00,,,0.00,meteobridge,2017-04-25 11:23:00,
2017-04-25 04:28:00,38.8,29.1,29.99,NNW,339,4.0,6.5,68,0.00,,,0.00,meteobridge,2017-04-25 11:28:00,
2017-04-25 04:33:00,38.8,29.1,29.99,NW,312,5.4,8.7,68,0.00,,,0.00,meteobridge,2017-04-25 11:33:00,
2017-04-25 04:38:00,38.8,29.1,29.99,West,281,5.4,7.4,68,0.00,,,0.00,meteobridge,2017-04-25 11:38:00,
2017-04-25 04:43:00,38.8,29.1,29.99,NW,320,7.4,10.1,68,0.00,,,0.00,meteobridge,2017-04-25 11:43:00,
2017-04-25 04:48:00,38.8,29.1,29.99,WNW,287,4.3,8.5,68,0.00,,,0.00,meteobridge,2017-04-25 11:48:00,
2017-04-25 04:53:00,38.8,28.8,29.99,West,259,3.1,6.9,67,0.00,,,0.00,meteobridge,2017-04-25 11:53:00,
2017-04-25 04:58:00,38.7,28.9,29.99,SW,218,2.9,7.4,68,0.00,,,0.00,meteobridge,2017-04-25 11:58:00,
2017-04-25 05:03:00,38.7,28.9,29.99,West,281,2.9,6.9,68,0.00,,,0.00,meteobridge,2017-04-25 12:03:00,
2017-04-25 05:08:00,38.5,28.8,29.99,SW,229,2.9,5.4,68,0.00,,,0.00,meteobridge,2017-04-25 12:08:00,
2017-04-25 05:13:00,38.3,28.8,29.99,South,179,2.0,2.9,68,0.00,,,0.00,meteobridge,2017-04-25 12:13:00,
2017-04-25 05:18:00,38.1,28.6,29.99,West,281,2.5,5.1,68,0.00,,,0.00,meteobridge,2017-04-25 12:18:00,
2017-04-25 05:23:00,37.9,28.8,29.99,South,185,1.3,2.9,69,0.00,,,0.00,meteobridge,2017-04-25 12:23:00,
2017-04-25 05:28:00,37.8,28.6,29.99,South,175,0.0,2.0,69,0.00,,,0.00,meteobridge,2017-04-25 12:28:00,
2017-04-25 05:33:00,37.4,28.6,29.99,SSW,201,0.0,2.9,70,0.00,,,0.00,meteobridge,2017-04-25 12:33:00,
2017-04-25 05:38:00,37.0,28.6,29.99,WSW,246,2.5,2.5,71,0.00,,,0.00,meteobridge,2017-04-25 12:38:00,
2017-04-25 05:43:00,36.9,28.4,30.00,WSW,246,1.3,1.8,71,0.00,,,0.00,meteobridge,2017-04-25 12:43:00,
2017-04-25 05:48:00,36.3,28.2,30.00,West,280,0.0,2.5,72,0.00,,,0.00,meteobridge,2017-04-25 12:48:00,
2017-04-25 05:53:00,36.0,28.2,30.00,SSW,204,2.0,3.1,73,0.00,,,0.00,meteobridge,2017-04-25 12:53:00,
2017-04-25 05:58:00,35.8,28.0,29.99,West,260,1.3,4.3,73,0.00,,,0.00,meteobridge,2017-04-25 12:58:00,
2017-04-25 06:03:00,35.6,27.9,29.99,West,260,0.0,2.0,73,0.00,,,0.00,meteobridge,2017-04-25 13:03:00,
2017-04-25 06:08:00,35.4,28.0,29.99,West,260,2.5,2.5,74,0.00,,,0.00,meteobridge,2017-04-25 13:08:00,
2017-04-25 06:11:00,35.2,27.9,29.99,NNW,330,3.1,3.6,74,0.00,,,0.00,meteobridge,2017-04-25 13:11:00,
2017-04-25 06:16:00,35.1,27.7,30.00,North,354,1.3,2.0,74,0.00,,,0.00,meteobridge,2017-04-25 13:16:00,
2017-04-25 06:21:00,34.9,27.7,30.00,North,354,1.3,2.0,75,0.00,,,0.00,meteobridge,2017-04-25 13:21:00,
2017-04-25 06:26:00,34.7,27.9,30.00,NW,321,0.0,2.5,76,0.00,,,0.00,meteobridge,2017-04-25 13:26:00,
2017-04-25 06:31:00,34.5,27.7,30.01,NW,321,2.5,2.5,76,0.00,,,0.00,meteobridge,2017-04-25 13:31:00,
2017-04-25 06:37:00,34.5,28.0,30.01,NW,311,3.1,3.1,77,0.00,,,0.00,meteobridge,2017-04-25 13:37:00,
2017-04-25 06:42:00,34.9,27.7,30.02,West,268,2.5,3.6,75,0.00,,,0.00,meteobridge,2017-04-25 13:42:00,
2017-04-25 06:47:00,36.0,28.4,30.02,West,277,2.5,4.3,74,0.00,,,0.00,meteobridge,2017-04-25 13:47:00,
2017-04-25 06:52:00,37.0,29.1,30.02,SW,231,1.8,4.3,73,0.00,,,0.00,meteobridge,2017-04-25 13:52:00,
2017-04-25 06:57:00,37.8,29.1,30.02,WNW,282,3.1,4.3,71,0.00,,,0.00,meteobridge,2017-04-25 13:57:00,
2017-04-25 07:02:00,38.7,29.7,30.02,NW,322,4.3,6.9,70,0.00,,,0.00,meteobridge,2017-04-25 14:02:00,
2017-04-25 07:07:00,39.2,29.8,30.02,WNW,294,1.8,4.0,69,0.00,,,0.00,meteobridge,2017-04-25 14:07:00,
2017-04-25 07:12:00,39.7,30.0,30.03,NNW,342,1.8,3.6,68,0.00,,,0.00,meteobridge,2017-04-25 14:12:00,
2017-04-25 07:17:00,40.3,30.2,30.03,ENE,70,2.0,6.9,67,0.00,,,0.00,meteobridge,2017-04-25 14:17:00,
2017-04-25 07:22:00,40.6,30.2,30.03,NW,321,2.0,6.5,66,0.00,,,0.00,meteobridge,2017-04-25 14:22:00,
2017-04-25 07:27:00,40.8,30.0,30.03,North,349,3.1,5.1,65,0.00,,,0.00,meteobridge,2017-04-25 14:27:00,
2017-04-25 07:32:00,41.4,30.6,30.03,NW,325,3.6,4.7,65,0.00,,,0.00,meteobridge,2017-04-25 14:32:00,
2017-04-25 07:37:00,41.5,30.7,30.03,South,182,2.0,4.0,65,0.00,,,0.00,meteobridge,2017-04-25 14:37:00,
2017-04-25 07:42:00,42.1,30.7,30.02,WNW,302,4.0,6.3,64,0.00,,,0.00,meteobridge,2017-04-25 14:42:00,
2017-04-25 07:47:00,42.1,30.4,30.02,NW,326,2.9,4.7,63,0.00,,,0.00,meteobridge,2017-04-25 14:47:00,
2017-04-25 07:52:00,42.3,30.6,30.02,NNW,345,2.5,4.0,63,0.00,,,0.00,meteobridge,2017-04-25 14:52:00,
2017-04-25 07:57:00,42.4,30.7,30.02,WNW,288,5.8,6.5,63,0.00,,,0.00,meteobridge,2017-04-25 14:57:00,
2017-04-25 08:02:00,42.4,30.7,30.02,NW,313,1.8,4.0,63,0.00,,,0.00,meteobridge,2017-04-25 15:02:00,
2017-04-25 08:07:00,42.6,30.9,30.02,NW,308,2.5,3.6,63,0.00,,,0.00,meteobridge,2017-04-25 15:07:00,
2017-04-25 08:12:00,43.2,30.6,30.02,ESE,123,2.0,6.5,61,0.00,,,0.00,meteobridge,2017-04-25 15:12:00,
2017-04-25 08:17:00,43.3,30.7,30.02,NW,313,4.3,4.3,61,0.00,,,0.00,meteobridge,2017-04-25 15:17:00,
2017-04-25 08:22:00,43.5,30.6,30.02,ENE,73,4.0,4.0,60,0.00,,,0.00,meteobridge,2017-04-25 15:22:00,
2017-04-25 08:27:00,44.4,31.5,30.03,WNW,303,2.9,3.6,60,0.00,,,0.00,meteobridge,2017-04-25 15:27:00,
2017-04-25 08:32:00,45.0,31.5,30.03,SSE,151,1.3,4.3,59,0.00,,,0.00,meteobridge,2017-04-25 15:32:00,
2017-04-25 08:37:00,45.5,31.6,30.03,South,186,3.1,3.6,58,0.00,,,0.00,meteobridge,2017-04-25 15:37:00,
2017-04-25 08:42:00,46.2,31.5,30.03,ESE,115,3.1,4.7,56,0.00,,,0.00,meteobridge,2017-04-25 15:42:00,
2017-04-25 08:47:00,46.9,32.0,30.03,East,79,3.1,5.1,56,0.00,,,0.00,meteobridge,2017-04-25 15:47:00,
2017-04-25 08:52:00,47.1,31.8,30.03,NNE,19,2.9,5.8,55,0.00,,,0.00,meteobridge,2017-04-25 15:52:00,
2017-04-25 08:57:00,46.9,32.0,30.04,NE,42,4.0,5.4,56,0.00,,,0.00,meteobridge,2017-04-25 15:57:00,
2017-04-25 09:02:00,47.1,32.2,30.04,SE,140,3.6,5.8,56,0.00,,,0.00,meteobridge,2017-04-25 16:02:00,
2017-04-25 09:07:00,47.7,32.4,30.04,ENE,64,4.7,4.7,55,0.00,,,0.00,meteobridge,2017-04-25 16:07:00,
2017-04-25 09:12:00,48.0,32.5,30.05,SE,125,3.1,4.7,55,0.00,,,0.00,meteobridge,2017-04-25 16:12:00,
2017-04-25 09:17:00,47.8,32.5,30.05,ENE,75,3.6,4.7,55,0.00,,,0.00,meteobridge,2017-04-25 16:17:00,
2017-04-25 09:22:00,47.5,31.6,30.05,SW,216,2.5,6.3,54,0.00,,,0.00,meteobridge,2017-04-25 16:22:00,
2017-04-25 09:27:00,47.1,32.2,30.06,SSE,162,2.9,4.3,56,0.00,,,0.00,meteobridge,2017-04-25 16:27:00,
2017-04-25 09:32:00,47.3,32.4,30.06,SSE,165,4.3,6.3,56,0.00,,,0.00,meteobridge,2017-04-25 16:32:00,
2017-04-25 09:37:00,47.5,32.2,30.06,SE,131,2.9,4.7,55,0.00,,,0.00,meteobridge,2017-04-25 16:37:00,
2017-04-25 09:42:00,47.8,32.5,30.06,SE,126,2.9,5.8,55,0.00,,,0.00,meteobridge,2017-04-25 16:42:00,
2017-04-25 09:47:00,48.0,32.5,30.06,ESE,102,2.9,4.0,55,0.00,,,0.00,meteobridge,2017-04-25 16:47:00,
2017-04-25 09:52:00,48.4,32.9,30.06,South,174,2.0,3.1,55,0.00,,,0.00,meteobridge,2017-04-25 16:52:00,
2017-04-25 09:57:00,48.6,33.1,30.06,SE,127,5.4,5.4,55,0.00,,,0.00,meteobridge,2017-04-25 16:57:00,
2017-04-25 10:02:00,48.9,33.4,30.06,SSE,167,2.0,4.0,55,0.00,,,0.00,meteobridge,2017-04-25 17:02:00,
2017-04-25 10:07:00,49.3,33.3,30.06,North,358,2.5,4.7,54,0.00,,,0.00,meteobridge,2017-04-25 17:07:00,
2017-04-25 10:12:00,49.6,33.3,30.06,SE,139,6.3,7.6,53,0.00,,,0.00,meteobridge,2017-04-25 17:12:00,
2017-04-25 10:17:00,48.7,32.9,30.06,SSE,148,4.0,5.4,54,0.00,,,0.00,meteobridge,2017-04-25 17:17:00,
2017-04-25 10:22:00,48.6,33.1,30.06,SE,131,5.1,6.9,55,0.00,,,0.00,meteobridge,2017-04-25 17:22:00,
2017-04-25 10:27:00,48.7,32.9,30.06,ESE,122,3.1,6.9,54,0.00,,,0.00,meteobridge,2017-04-25 17:27:00,